Home > Time Zones > World Clock > Weather > Cuba > Havana > Past weeks

Flag for Cuba Weather past 2 weeks in Havana, Cuba

Now
70 °F

Clear.


Feels Like: 70 °F
Forecast: 78 / 88 °F
Wind: No wind

Location: Aeropuerto Jose Marti - Rancho-Boyeros - Habana

Current Time: Sep 17, 2014 at 4:24:52 AM

Latest Report: Sep 17, 2014 at 3:55 AM


Visibility: 6 mi

Pressure: 29.98 "Hg

Humidity: 88%

Dew point: 66 °F

Location of HavanaLocation

Historic Weather in Havana — Graph

°F

Havana temperature yesterday

Maximum temperature yesterday: 90 °F (at 2:04 PM)
Minimum temperature yesterday: 70 °F (at 12:55 AM)
Average temperature yesterday: 77 °F

Past Weeks' High & Low Weather Summary

 TemperatureHumidityPressure
High93 °F (Sep 4, 3:55 PM)94% (Sep 2, 3:55 AM)30.12 "Hg (Sep 2, 3:55 AM)
Low68 °F (Sep 14, 5:55 AM)41% (Sep 4, 3:55 PM)29.92 "Hg (Sep 3, 5:55 PM)
Average78 °F77%30.01 "Hg
* Reported Sep 2 2:55 AM — Sep 17 2:55 AM, Havana, Weather by CustomWeather, © 2014

Note: Actual official high and low records may vary slightly from our data, if they occured in-between our weather recording intervals... More about our weather records

Advertising

Havana weather history for previous 24 hours

 ConditionsComfort  
Time TempWeatherWind HumidityBarometerVisibility
2:55 AM
Sep 17
70 °FClear.1 mph94%29.98 "Hg6 mi
1:55 AM70 °FClear.No wind94%30.01 "Hg6 mi
12:55 AM72 °FClear.2 mph88%30.01 "Hg6 mi
11:55 PM
Sep 16
72 °FClear.No wind94%30.04 "Hg6 mi
10:55 PM73 °FClear.1 mph89%30.07 "Hg6 mi
9:55 PM73 °FClear.3 mph89%30.04 "Hg6 mi
8:55 PM73 °FPassing clouds.2 mph89%30.04 "Hg6 mi
7:55 PM77 °FPassing clouds.1 mph83%30.01 "Hg6 mi
6:55 PM81 °FScattered clouds.1 mph79%29.98 "Hg6 mi
5:55 PM79 °FPartly sunny.5 mph79%29.98 "Hg6 mi
4:55 PM77 °FPartly sunny.5 mph83%29.98 "Hg6 mi
3:55 PM75 °FThunderstorms. Partly sunny.7 mph89%N/A5 mi
2:59 PM77 °FThunderstorms. Broken clouds.5 mph89%30.01 "Hg6 mi
2:55 PM79 °FStrong thunderstorms. Broken clouds.8 mph79%30.01 "Hg1 mi
2:04 PM90 °FLots of rain. Partly sunny.12 mph49%30.01 "Hg1 mi
1:55 PM88 °FLight rain. Partly sunny.5 mph55%30.04 "Hg6 mi
12:55 PM86 °FPartly sunny.5 mph62%30.04 "Hg6 mi
11:55 AM86 °FPartly sunny.6 mph62%30.07 "Hg6 mi
10:55 AM86 °FScattered clouds.7 mph66%30.07 "Hg6 mi
9:55 AM82 °FPassing clouds.8 mph79%30.07 "Hg6 mi
8:55 AM79 °FPassing clouds.5 mph84%30.09 "Hg6 mi
7:55 AM72 °FPassing clouds.1 mph88%30.07 "Hg6 mi
6:55 AM70 °FPassing clouds.2 mph94%30.07 "Hg6 mi
5:55 AM70 °FClear.2 mph94%30.07 "Hg6 mi
4:55 AM70 °FClear.2 mph88%30.07 "Hg6 mi
Weather by CustomWeather, © 2014

See weather overviewHow to use our weather pages